Skip Page Navigation
NASA JPL Caltech
NASA Logo - Jet Propulsion Laboratory + View the NASA Portal
+ Center for Near-Earth Object Studies
JPL Home Earth Solar System Stars & Galaxies Technology
JPL Solar System Dynamics
BODIES ORBITS EPHEMERIDES TOOLS PHYSICAL DATA DISCOVERY FAQ SITE MAP
IMPORTANT: The SSD Announcement email list is now available. Major changes are coming in the near future, including possible hostname and/or URL changes. To be notified of such changes, subscribe to this email list.

Please visit this page for more details.


JPL Small-Body Database Browser
Search: [ help ]  
71282 Holuby (2000 AC48)
Classification: Main-belt Asteroid          SPK-ID: 2071282
Ephemeris | Orbit Diagram | Orbital Elements | Mission Design | Physical Parameters | Discovery Circumstances | Close-Approach Data ]

[ show orbit diagram ]
Orbital Elements at Epoch 2458600.5 (2019-Apr-27.0) TDB
Reference: JPL 24 (heliocentric ecliptic J2000)
 Element Value Uncertainty (1-sigma)   Units 
e .1142797785091129 3.6705e-08  
a 3.063546972607857 2.3072e-08 au
q 2.713445503125968 1.1835e-07 au
i 12.27756492523918 5.0186e-06 deg
node 128.5493383251967 2.2746e-05 deg
peri 305.6912312060746 3.4789e-05 deg
M 258.2085675839747 2.4804e-05 deg
tp 2459154.288543971414
(2020-Oct-31.78854397)
0.00013552 TDB
period 1958.552611922206
5.36
2.2125e-05
6.057e-08
d
yr
n .1838092057413157 2.0764e-09 deg/d
Q 3.413648442089747 2.5708e-08 au
  Orbit Determination Parameters
   # obs. used (total)      1046  
   data-arc span      8578 days (23.49 yr)  
   first obs. used      1996-03-23  
   last obs. used      2019-09-17  
   planetary ephem.      DE431  
   SB-pert. ephem.      SB431-N16  
   condition code      0  
   norm. resid. RMS      .52671  
   source      ORB  
   producer      Otto Matic  
   solution date      2019-Sep-24 02:39:57  

Additional Information
 Earth MOID = 1.7502 au 
 Jupiter MOID = 1.84156 au 
 T_jup = 3.188 
[ show covariance matrix ]

Ephemeris | Orbit Diagram | Orbital Elements | Mission Design | Physical Parameters | Discovery Circumstances | Close-Approach Data ]

Physical Parameter Table
Parameter Symbol Value Units Sigma Reference Notes
absolute magnitude H 13.9   n/a MPO359241  
diameter diameter 6.406 km 0.202 urn:nasa:pds:neowise_diameters_albedos::2.0[mainbelt] (http://adsabs.harvard.edu/abs/2011ApJ...741...68M)  
geometric albedo albedo 0.119   0.047 urn:nasa:pds:neowise_diameters_albedos::2.0[mainbelt] (http://adsabs.harvard.edu/abs/2011ApJ...741...68M)  

71282 Holuby           Discovered 2000 Jan. 6 by A. Galad and P. Koleny at Modra.
Jozef Ludovít Holuby (1836-1923) was a Slovak Lutheran priest, writer, revivalist, botanist and ethnographer. He obtained an honorary doctorate of natural sciences at the Faculty of Natural Sciences at Charles University in Prague in 1922.
NOTE: some special characters may not display properly (any characters within {} are an attempt to place the proper accent above a character)
Reference: MPC batch dated 2018-05-29Last Updated: 2018-09-17

[ show close-approach data ]
Ephemeris | Orbit Diagram | Orbital Elements | Mission Design | Physical Parameters | Discovery Circumstances | Close-Approach Data ]
ABOUT SSD CREDITS/AWARDS PRIVACY/COPYRIGHT GLOSSARY LINKS
FirstGov 2019-Oct-17 04:29 UT
(server date/time)  
NASA Home Page
Site Manager:   Ryan S. Park
Webmaster  Alan B. Chamberlin